Zurück zum Katalog

TITAN 3 R/B(2)

AktivHEO
NORAD 20669·ROCKET BODY·🇺🇸 United States

Gestartet Jun 23, 1990 von Cape Canaveral Space Force Station

Loading…

Nächste Überflüge (nächste 24 Stunden)

TLE

AktuellSource: Space-Track

Epoche: Sep 14, 2026, 15:05 UTC

1 20669U 90056C   26257.62889102  .00000915  00000-0  44442-3 0  9997
2 20669  24.2951  80.9842 7006299 356.9357   0.3647  2.61568972312934

Verfolge TITAN 3 R/B(2) in Echtzeit mit AllMySat

Download on the App Store